Weather History for Deming, NM

Change the Weather History Date:

Thursday, April 24, 2014

  Actual Average Record
Temperature  
Mean Temperature 62 °F 63 °F  
Max Temperature 81 °F 81 °F 91 °F (2012)
Min Temperature 43 °F 44 °F 23 °F (1968)
Degree Days  
Heating Degree Days 2    
Growing Degree Days 12 (Base 50)    
Moisture  
Dew Point 14 °F    
Average Humidity 18    
Maximum Humidity 28    
Minimum Humidity 7    
Precipitation  
Precipitation 0.00 in 0.02 in 0.33 in (2005)
Month to date precipitation 0.20 0.31  
Year to date precipitation 0.57 1.93  
Sea Level Pressure  
Sea Level Pressure 29.85 in    
Wind  
Wind Speed 7 mph (WNW)    
Max Wind Speed 17 mph    
Max Gust Speed 23 mph    
Visibility 10 miles    
Events      
T = Trace of Precipitation, MM = Missing Value Source: NWS Daily Summary

Daily Weather History Graph

Daily Weather History Graph

Search for Another Location

Airport:

Trip Planner

Search our weather history database for the weather conditions in past years. The results will help you decide how hot, cold, wet, or windy it might be!

Date:

Astronomy

Apr. 24, 2014 Rise Set
Actual Time 6:31 AM MDT 7:46 PM MDT
Civil Twilight 6:05 AM MDT 8:12 PM MDT
Nautical Twilight 5:35 AM MDT 8:43 PM MDT
Astronomical Twilight 5:03 AM MDT 9:14 PM MDT
Moon 3:27 AM MDT (4/24) 3:21 PM MDT (4/24)
Length of Visible Light 14h 06m
Length of Day
13h 15m
Waning Crescent, 24% of the Moon is Illuminated
Apr 24
Waning Crescent
Apr 29
New
May 6
First Quarter
May 14
Full
May 21
Last Quarter

Hourly Weather History & Observations

Time (MDT) Temp. Windchill Dew Point Humidity Pressure Visibility Wind Dir Wind Speed Gust Speed Precip Events Conditions
12:53 AM 57.0 °F - 10.9 °F 16% 29.78 in 10.0 mi NW 8.1 mph - N/A   Clear
1:53 AM 54.0 °F - 12.0 °F 19% 29.79 in 10.0 mi WNW 8.1 mph - N/A   Clear
2:53 AM 53.1 °F - 12.0 °F 20% 29.79 in 10.0 mi WNW 10.4 mph - N/A   Clear
3:53 AM 50.0 °F - 12.9 °F 23% 29.82 in 10.0 mi WSW 8.1 mph - N/A   Clear
4:53 AM 48.0 °F - 12.0 °F 24% 29.83 in 10.0 mi North 4.6 mph - N/A   Clear
5:53 AM 46.9 °F - 12.9 °F 25% 29.86 in 10.0 mi SW 11.5 mph - N/A   Clear
6:53 AM 45.0 °F 40.6 °F 14.0 °F 29% 29.89 in 10.0 mi WSW 8.1 mph - N/A   Clear
7:53 AM 53.1 °F - 16.0 °F 23% 29.92 in 10.0 mi WNW 6.9 mph - N/A   Clear
8:53 AM 59.0 °F - 15.1 °F 18% 29.92 in 10.0 mi North 4.6 mph - N/A   Clear
9:53 AM 64.0 °F - 14.0 °F 14% 29.94 in 10.0 mi ESE 9.2 mph - N/A   Clear
10:53 AM 69.1 °F - 12.0 °F 11% 29.94 in 10.0 mi SE 8.1 mph - N/A   Clear
11:53 AM 73.0 °F - 10.9 °F 9% 29.91 in 10.0 mi Variable 6.9 mph - N/A   Clear
12:53 PM 73.9 °F - 10.0 °F 9% 29.90 in 10.0 mi Variable 3.5 mph - N/A   Clear
1:53 PM 75.9 °F - 10.9 °F 8% 29.88 in 10.0 mi Variable 3.5 mph - N/A   Clear
2:53 PM 79.0 °F - 10.0 °F 7% 29.85 in 10.0 mi West 11.5 mph 18.4 mph N/A   Clear
3:53 PM 78.1 °F - 12.0 °F 8% 29.83 in 10.0 mi Variable 6.9 mph 18.4 mph N/A   Clear
4:53 PM 80.1 °F - 12.9 °F 8% 29.81 in 10.0 mi West 13.8 mph 20.7 mph N/A   Clear
5:53 PM 79.0 °F - 14.0 °F 9% 29.80 in 10.0 mi WNW 8.1 mph - N/A   Clear
6:53 PM 79.0 °F - 15.1 °F 9% 29.79 in 10.0 mi WNW 9.2 mph - N/A   Clear
7:53 PM 73.0 °F - 17.1 °F 12% 29.79 in 10.0 mi WNW 6.9 mph - N/A   Clear
8:53 PM 68.0 °F - 19.9 °F 16% 29.80 in 10.0 mi NW 5.8 mph - N/A   Clear
9:53 PM 63.0 °F - 19.0 °F 18% 29.81 in 10.0 mi Calm Calm - N/A   Clear
10:53 PM 61.0 °F - 17.1 °F 18% 29.82 in 10.0 mi Calm Calm - N/A   Clear
11:53 PM 55.0 °F - 21.9 °F 28% 29.83 in 10.0 mi WNW 5.8 mph - N/A   Clear